TimeCDT,TemperatureF,Dew PointF,Humidity,Sea Level PressureIn,VisibilityMPH,Wind Direction,Wind SpeedMPH,Gust SpeedMPH,PrecipitationIn,Events,Conditions,WindDirDegrees,DateUTC
12:13 AM,37.4,33.8,87,29.77,10.0,North,6.9,-,N/A,,Light Drizzle,350,2013-10-18 05:13:00
12:34 AM,37.4,33.8,87,29.78,10.0,North,8.1,16.1,N/A,,Light Drizzle,350,2013-10-18 05:34:00
12:53 AM,37.4,33.8,87,29.78,10.0,NNW,9.2,-,N/A,,Overcast,340,2013-10-18 05:53:00
1:14 AM,37.4,33.8,87,29.78,10.0,North,9.2,-,N/A,,Overcast,350,2013-10-18 06:14:00
1:34 AM,37.4,33.8,87,29.78,10.0,NNW,8.1,-,N/A,,Overcast,340,2013-10-18 06:34:00
1:53 AM,35.6,33.8,93,29.78,10.0,NNW,12.7,-,N/A,,Overcast,340,2013-10-18 06:53:00
2:14 AM,35.6,32.0,87,29.78,10.0,NNW,8.1,-,N/A,,Overcast,340,2013-10-18 07:14:00
2:33 AM,35.6,32.0,87,29.78,10.0,NNW,9.2,-,N/A,,Overcast,340,2013-10-18 07:33:00
2:53 AM,35.6,32.0,87,29.78,10.0,North,8.1,-,N/A,,Overcast,350,2013-10-18 07:53:00
3:14 AM,35.6,32.0,87,29.78,10.0,NNW,9.2,-,N/A,,Mostly Cloudy,330,2013-10-18 08:14:00
3:33 AM,35.6,32.0,87,29.79,10.0,NNW,9.2,-,N/A,,Scattered Clouds,330,2013-10-18 08:33:00
3:53 AM,35.6,30.2,81,29.78,10.0,NNW,9.2,-,N/A,,Scattered Clouds,340,2013-10-18 08:53:00
4:14 AM,33.8,30.2,87,29.78,10.0,NNW,4.6,-,N/A,,Scattered Clouds,340,2013-10-18 09:14:00
4:34 AM,33.8,30.2,87,29.78,10.0,NNW,5.8,-,N/A,,Mostly Cloudy,330,2013-10-18 09:34:00
4:53 AM,35.6,30.2,81,29.78,10.0,NNW,6.9,-,N/A,,Overcast,330,2013-10-18 09:53:00
5:14 AM,35.6,30.2,81,29.78,10.0,NNW,8.1,-,N/A,,Overcast,330,2013-10-18 10:14:00
5:33 AM,35.6,30.2,81,29.78,10.0,NNW,6.9,-,N/A,,Overcast,330,2013-10-18 10:33:00
5:53 AM,35.6,30.2,81,29.78,10.0,NNW,10.4,-,N/A,,Overcast,330,2013-10-18 10:53:00
6:14 AM,35.6,30.2,81,29.79,10.0,NNW,9.2,16.1,N/A,,Overcast,330,2013-10-18 11:14:00
6:33 AM,35.6,30.2,81,29.79,10.0,NNW,10.4,16.1,N/A,,Overcast,330,2013-10-18 11:33:00
6:53 AM,33.8,30.2,87,29.80,10.0,NNW,10.4,-,N/A,,Overcast,330,2013-10-18 11:53:00
7:14 AM,33.8,30.2,87,29.80,10.0,NNW,10.4,-,N/A,,Overcast,330,2013-10-18 12:14:00
7:33 AM,33.8,30.2,87,29.81,10.0,NNW,9.2,-,N/A,,Overcast,330,2013-10-18 12:33:00
7:53 AM,33.8,28.4,81,29.81,10.0,NNW,8.1,-,N/A,,Overcast,330,2013-10-18 12:53:00
8:14 AM,33.8,28.4,81,29.82,10.0,NNW,9.2,-,N/A,,Overcast,330,2013-10-18 13:14:00
8:33 AM,33.8,28.4,81,29.82,10.0,NNW,8.1,-,N/A,,Overcast,330,2013-10-18 13:33:00
8:53 AM,35.6,30.2,81,29.82,10.0,NNW,10.4,16.1,N/A,,Mostly Cloudy,330,2013-10-18 13:53:00
9:14 AM,35.6,28.4,75,29.82,10.0,NW,6.9,-,N/A,,Scattered Clouds,320,2013-10-18 14:14:00
9:33 AM,35.6,28.4,75,29.83,10.0,NW,8.1,-,N/A,,Scattered Clouds,320,2013-10-18 14:33:00
9:53 AM,37.4,28.4,70,29.84,10.0,NNW,8.1,-,N/A,,Clear,330,2013-10-18 14:53:00
10:14 AM,37.4,28.4,70,29.84,10.0,NW,5.8,-,N/A,,Scattered Clouds,320,2013-10-18 15:14:00
10:33 AM,37.4,28.4,70,29.84,10.0,NW,4.6,-,N/A,,Scattered Clouds,310,2013-10-18 15:33:00
10:53 AM,39.2,28.4,65,29.84,10.0,NW,9.2,-,N/A,,Clear,320,2013-10-18 15:53:00
11:13 AM,39.2,28.4,65,29.84,10.0,NNW,9.2,-,N/A,,Scattered Clouds,330,2013-10-18 16:13:00
11:34 AM,39.2,26.6,61,29.84,10.0,North,9.2,-,N/A,,Clear,350,2013-10-18 16:34:00
11:53 AM,39.2,26.6,61,29.85,10.0,NNW,10.4,-,N/A,,Clear,330,2013-10-18 16:53:00
12:13 PM,42.8,26.6,53,29.84,10.0,WNW,6.9,-,N/A,,Clear,300,2013-10-18 17:13:00
12:34 PM,42.8,24.8,49,29.84,10.0,NNW,8.1,-,N/A,,Clear,330,2013-10-18 17:34:00
12:53 PM,42.8,24.8,49,29.84,10.0,North,8.1,-,N/A,,Clear,350,2013-10-18 17:53:00
1:13 PM,42.8,24.8,49,29.83,10.0,WNW,5.8,-,N/A,,Scattered Clouds,300,2013-10-18 18:13:00
1:34 PM,42.8,24.8,49,29.83,10.0,WNW,6.9,19.6,N/A,,Mostly Cloudy,300,2013-10-18 18:34:00
1:54 PM,44.6,23.0,43,29.82,10.0,WNW,5.8,-,N/A,,Mostly Cloudy,300,2013-10-18 18:54:00
2:13 PM,44.6,23.0,43,29.82,10.0,Calm,Calm,-,N/A,,Mostly Cloudy,0,2013-10-18 19:13:00
2:34 PM,42.8,23.0,46,29.82,10.0,NW,5.8,-,N/A,,Overcast,320,2013-10-18 19:34:00
2:54 PM,42.8,24.8,49,29.82,10.0,Calm,Calm,-,N/A,,Overcast,0,2013-10-18 19:54:00
3:13 PM,42.8,23.0,46,29.82,10.0,NW,3.5,-,N/A,,Overcast,310,2013-10-18 20:13:00
3:34 PM,42.8,23.0,46,29.81,10.0,NW,3.5,-,N/A,,Mostly Cloudy,310,2013-10-18 20:34:00
3:53 PM,44.6,23.0,43,29.81,10.0,West,3.5,-,N/A,,Scattered Clouds,280,2013-10-18 20:53:00
4:13 PM,42.8,21.2,42,29.80,10.0,Calm,Calm,-,N/A,,Scattered Clouds,0,2013-10-18 21:13:00
4:34 PM,42.8,21.2,42,29.81,10.0,Calm,Calm,-,N/A,,Mostly Cloudy,0,2013-10-18 21:34:00
4:53 PM,42.8,26.6,53,29.80,10.0,South,5.8,-,N/A,,Mostly Cloudy,180,2013-10-18 21:53:00
5:13 PM,41.0,28.4,61,29.81,10.0,SSW,6.9,-,N/A,,Overcast,200,2013-10-18 22:13:00
5:34 PM,39.2,28.4,65,29.81,10.0,SSW,3.5,-,N/A,,Overcast,210,2013-10-18 22:34:00
5:53 PM,39.2,28.4,65,29.81,10.0,SW,6.9,-,N/A,,Overcast,220,2013-10-18 22:53:00
6:13 PM,37.4,28.4,70,29.82,10.0,SW,4.6,-,N/A,,Overcast,230,2013-10-18 23:13:00
6:33 PM,37.4,28.4,70,29.82,10.0,WSW,4.6,-,N/A,,Overcast,240,2013-10-18 23:33:00
6:54 PM,35.6,30.2,81,29.83,10.0,Calm,Calm,-,N/A,,Overcast,0,2013-10-18 23:54:00
7:14 PM,35.6,28.4,75,29.82,10.0,South,3.5,-,N/A,,Overcast,190,2013-10-19 00:14:00
7:33 PM,37.4,28.4,70,29.82,10.0,South,3.5,-,N/A,,Overcast,180,2013-10-19 00:33:00
7:53 PM,37.4,28.4,70,29.81,10.0,SSW,4.6,-,N/A,,Overcast,200,2013-10-19 00:53:00
8:14 PM,37.4,28.4,70,29.81,10.0,South,3.5,-,N/A,,Overcast,190,2013-10-19 01:14:00
8:34 PM,35.6,28.4,75,29.80,10.0,SSW,4.6,-,N/A,,Mostly Cloudy,210,2013-10-19 01:34:00
8:53 PM,35.6,30.2,81,29.81,10.0,SW,6.9,-,N/A,,Overcast,230,2013-10-19 01:53:00
9:14 PM,35.6,28.4,75,29.80,10.0,West,4.6,-,N/A,,Light Drizzle,260,2013-10-19 02:14:00
9:34 PM,33.8,28.4,81,29.79,10.0,Calm,Calm,-,N/A,,Mostly Cloudy,0,2013-10-19 02:34:00
9:53 PM,33.8,28.4,81,29.79,10.0,Calm,Calm,-,N/A,,Mostly Cloudy,0,2013-10-19 02:53:00
10:14 PM,33.8,28.4,81,29.79,10.0,Calm,Calm,-,N/A,,Scattered Clouds,0,2013-10-19 03:14:00
10:33 PM,30.2,26.6,86,29.78,10.0,Calm,Calm,-,N/A,,Clear,0,2013-10-19 03:33:00
10:53 PM,28.4,26.6,93,29.78,10.0,Calm,Calm,-,N/A,,Clear,0,2013-10-19 03:53:00
11:14 PM,28.4,26.6,93,29.77,10.0,Calm,Calm,-,N/A,,Scattered Clouds,0,2013-10-19 04:14:00
11:33 PM,30.2,26.6,86,29.77,10.0,Calm,Calm,-,N/A,,Overcast,0,2013-10-19 04:33:00
11:53 PM,30.2,26.6,86,29.76,10.0,Calm,Calm,-,N/A,,Overcast,0,2013-10-19 04:53:00